Location: *
(49.8044°N, 4.0558°E)
Time: 22:24:25
(UTC+00:00)

Cosmos 1833 Rocket - Pass Details

Date: 09 April 2020
Orbit: 834 x 838 km, 71.0° (Epoch: 24 May)

Event Time Altitude Azimuth Distance (km) Brightness Sun altitude
Exits shadow 20:39:04 29° 92° (E) 1,512 3.6 -19.5°
Drops below altitude 10° 20:43:12 10° 46° (NE) 2,460 5.1 -20.0°
Sets 20:45:55 0° 36° (NE) 3,399 5.9 -20.3°
